Location: Rosenheim
(47.8408°N, 12.2113°E)
Time: 19:23:18
(UTC+02:00)

ISS - Pass Details

Date: 04 January 2018
Orbit: 402 x 408 km, 51.6° (Epoch: 18 July)

Event Time Altitude Azimuth Distance (km) Brightness Sun altitude
Exits shadow 05:34:51 33° 50° (NE) 720 -2.3 -23.4°
Drops below altitude 10° 05:36:57 10° 65° (ENE) 1,502 -0.2 -23.0°
Enters shadow 06:32:24 -70° 261° (W) 12,431 3.6 -14.0°
